M I D A S
Marine Information and Data Acquisition System
Tripno 1356 of the Zeeleeuw from 2007-09-25 06:39:14 to 2007-09-25 15:25:09
Back to CruiseResearch ActivitiesStationsMapUnderway DataData graphs

EquipmentUnitsComment
TimeDGPSUTC
LatitudeDGPSDM.mWGS84
LongitudeDGPSDM.mWGS84
TemperatureSBE03/SBE38deg celciusITS90
ConductivitySBE21S/mITS90
SalinitySBE21 Practical Salinity Units
ChlorophylAChelsea fluorimeterg/lCalibrated in Aceton
Missing or incorrect values are displayed as -999
Sea surface data collected by the RV Zeeleeuw from 2007-09-25 06:26:18 to 2007-09-25 15:38:00
                                                                                    Next 1000 lines
Time Latitude Longitude Temperature Conductivity Salinity ChlorophylA
2007-09-25 06:26:28 51°13.603 2°56.098 -999 -999 -999 -999
2007-09-25 06:26:33 51°13.603 2°56.097 -999 -999 -999 -999
2007-09-25 06:26:37 51°13.604 2°56.095 -999 -999 -999 -999
2007-09-25 06:26:42 51°13.605 2°56.093 -999 -999 -999 -999
2007-09-25 06:26:47 51°13.606 2°56.09 -999 -999 -999 -999
2007-09-25 06:26:52 51°13.607 2°56.086 -999 -999 -999 -999
2007-09-25 06:26:57 51°13.609 2°56.082 -999 -999 -999 -999
2007-09-25 06:27:03 51°13.611 2°56.076 -999 -999 -999 -999
2007-09-25 06:27:09 51°13.613 2°56.07 -999 -999 -999 -999
2007-09-25 06:27:14 51°13.614 2°56.066 -999 -999 -999 -999
2007-09-25 06:27:19 51°13.616 2°56.06 -999 -999 -999 -999
2007-09-25 06:27:24 51°13.618 2°56.054 -999 -999 -999 -999
2007-09-25 06:27:29 51°13.62 2°56.048 -999 -999 -999 -999
2007-09-25 06:27:34 51°13.62 2°56.042 -999 -999 -999 -999
2007-09-25 06:27:39 51°13.622 2°56.035 -999 -999 -999 -999
2007-09-25 06:27:44 51°13.624 2°56.028 -999 -999 -999 -999
2007-09-25 06:27:49 51°13.626 2°56.02 -999 -999 -999 -999
2007-09-25 06:27:54 51°13.63 2°56.012 -999 -999 -999 -999
2007-09-25 06:27:59 51°13.633 2°56.003 -999 -999 -999 -999
2007-09-25 06:28:04 51°13.636 2°55.994 -999 -999 -999 -999
2007-09-25 06:28:09 51°13.64 2°55.985 -999 -999 -999 -999
2007-09-25 06:28:14 51°13.644 2°55.976 -999 -999 -999 -999
2007-09-25 06:28:19 51°13.647 2°55.966 -999 -999 -999 -999
2007-09-25 06:28:24 51°13.652 2°55.956 -999 -999 -999 -999
2007-09-25 06:28:29 51°13.656 2°55.946 -999 -999 -999 -999
2007-09-25 06:28:34 51°13.661 2°55.936 -999 -999 -999 -999
2007-09-25 06:28:39 51°13.665 2°55.926 -999 -999 -999 -999
2007-09-25 06:28:44 51°13.668 2°55.916 -999 -999 -999 -999
2007-09-25 06:28:49 51°13.672 2°55.907 -999 -999 -999 -999
2007-09-25 06:28:54 51°13.676 2°55.897 -999 -999 -999 -999
2007-09-25 06:28:59 51°13.68 2°55.888 -999 -999 -999 -999
2007-09-25 06:29:04 51°13.683 2°55.879 -999 -999 -999 -999
2007-09-25 06:29:09 51°13.687 2°55.87 -999 -999 -999 -999
2007-09-25 06:29:14 51°13.69 2°55.862 -999 -999 -999 -999
2007-09-25 06:29:19 51°13.693 2°55.853 -999 -999 -999 -999
2007-09-25 06:29:24 51°13.696 2°55.844 -999 -999 -999 -999
2007-09-25 06:29:29 51°13.699 2°55.835 -999 -999 -999 -999
2007-09-25 06:29:34 51°13.701 2°55.827 -999 -999 -999 -999
2007-09-25 06:29:39 51°13.703 2°55.818 -999 -999 -999 -999
2007-09-25 06:29:44 51°13.705 2°55.809 -999 -999 -999 -999
2007-09-25 06:29:49 51°13.707 2°55.801 -999 -999 -999 -999
2007-09-25 06:29:54 51°13.708 2°55.793 -999 -999 -999 -999
2007-09-25 06:29:59 51°13.71 2°55.785 -999 -999 -999 -999
2007-09-25 06:30:04 51°13.71 2°55.777 -999 -999 -999 -999
2007-09-25 06:30:09 51°13.711 2°55.769 -999 -999 -999 -999
2007-09-25 06:30:14 51°13.711 2°55.761 -999 -999 -999 -999
2007-09-25 06:30:19 51°13.712 2°55.753 -999 -999 -999 -999
2007-09-25 06:30:24 51°13.712 2°55.746 -999 -999 -999 -999
2007-09-25 06:30:29 51°13.713 2°55.739 -999 -999 -999 -999
2007-09-25 06:30:34 51°13.713 2°55.732 -999 -999 -999 -999
2007-09-25 06:30:39 51°13.713 2°55.725 -999 -999 -999 -999
2007-09-25 06:30:44 51°13.713 2°55.72 -999 -999 -999 -999
2007-09-25 06:30:49 51°13.713 2°55.715 -999 -999 -999 -999
2007-09-25 06:30:53 51°13.713 2°55.712 -999 -999 -999 -999
2007-09-25 06:30:58 51°13.713 2°55.708 -999 -999 -999 -999
2007-09-25 06:31:03 51°13.713 2°55.706 -999 -999 -999 -999
2007-09-25 06:31:08 51°13.713 2°55.704 -999 -999 -999 -999
2007-09-25 06:31:13 51°13.713 2°55.703 -999 -999 -999 -999
2007-09-25 06:31:17 51°13.713 2°55.702 -999 -999 -999 -999
2007-09-25 06:31:22 51°13.714 2°55.702 -999 -999 -999 -999
2007-09-25 06:31:27 51°13.715 2°55.701 -999 -999 -999 -999
2007-09-25 06:31:32 51°13.715 2°55.702 -999 -999 -999 -999
2007-09-25 06:31:37 51°13.716 2°55.702 -999 -999 -999 -999
2007-09-25 06:31:41 51°13.717 2°55.702 -999 -999 -999 -999
2007-09-25 06:31:46 51°13.718 2°55.703 -999 -999 -999 -999
2007-09-25 06:31:51 51°13.719 2°55.704 -999 -999 -999 -999
2007-09-25 06:31:56 51°13.721 2°55.704 -999 -999 -999 -999
2007-09-25 06:32:00 51°13.722 2°55.705 -999 -999 -999 -999
2007-09-25 06:32:05 51°13.725 2°55.706 -999 -999 -999 -999
2007-09-25 06:32:10 51°13.728 2°55.706 -999 -999 -999 -999
2007-09-25 06:32:16 51°13.733 2°55.706 -999 -999 -999 -999
2007-09-25 06:32:20 51°13.736 2°55.705 -999 -999 -999 -999
2007-09-25 06:32:25 51°13.742 2°55.703 -999 -999 -999 -999
2007-09-25 06:32:30 51°13.748 2°55.7 -999 -999 -999 -999
2007-09-25 06:32:35 51°13.754 2°55.696 -999 -999 -999 -999
2007-09-25 06:32:41 51°13.762 2°55.691 -999 -999 -999 -999
2007-09-25 06:32:45 51°13.767 2°55.687 -999 -999 -999 -999
2007-09-25 06:32:50 51°13.775 2°55.682 -999 -999 -999 -999
2007-09-25 06:32:55 51°13.782 2°55.676 -999 -999 -999 -999
2007-09-25 06:33:00 51°13.79 2°55.67 -999 -999 -999 -999
2007-09-25 06:33:05 51°13.797 2°55.665 -999 -999 -999 -999
2007-09-25 06:33:10 51°13.806 2°55.658 -999 -999 -999 -999
2007-09-25 06:33:15 51°13.814 2°55.652 -999 -999 -999 -999
2007-09-25 06:33:20 51°13.822 2°55.646 -999 -999 -999 -999
2007-09-25 06:33:25 51°13.831 2°55.639 -999 -999 -999 -999
2007-09-25 06:33:30 51°13.839 2°55.632 -999 -999 -999 -999
2007-09-25 06:33:35 51°13.848 2°55.626 -999 -999 -999 -999
2007-09-25 06:33:40 51°13.857 2°55.619 -999 -999 -999 -999
2007-09-25 06:33:45 51°13.866 2°55.612 -999 -999 -999 -999
2007-09-25 06:33:50 51°13.876 2°55.605 -999 -999 -999 -999
2007-09-25 06:33:55 51°13.885 2°55.598 -999 -999 -999 -999
2007-09-25 06:34:00 51°13.894 2°55.59 -999 -999 -999 -999
2007-09-25 06:34:05 51°13.904 2°55.583 -999 -999 -999 -999
2007-09-25 06:34:10 51°13.913 2°55.576 -999 -999 -999 -999
2007-09-25 06:34:16 51°13.924 2°55.567 -999 -999 -999 -999
2007-09-25 06:34:20 51°13.932 2°55.561 -999 -999 -999 -999
2007-09-25 06:34:25 51°13.941 2°55.554 -999 -999 -999 -999
2007-09-25 06:34:30 51°13.951 2°55.546 -999 -999 -999 -999
2007-09-25 06:34:35 51°13.961 2°55.539 -999 -999 -999 -999
2007-09-25 06:34:41 51°13.972 2°55.531 -999 -999 -999 -999
2007-09-25 06:34:45 51°13.98 2°55.525 -999 -999 -999 -999
2007-09-25 06:34:50 51°13.99 2°55.518 -999 -999 -999 -999
2007-09-25 06:34:56 51°14.001 2°55.51 -999 -999 -999 -999
2007-09-25 06:35:00 51°14.009 2°55.504 -999 -999 -999 -999
2007-09-25 06:35:05 51°14.019 2°55.497 -999 -999 -999 -999
2007-09-25 06:35:10 51°14.029 2°55.49 -999 -999 -999 -999
2007-09-25 06:35:15 51°14.038 2°55.483 -999 -999 -999 -999
2007-09-25 06:35:20 51°14.048 2°55.476 -999 -999 -999 -999
2007-09-25 06:35:25 51°14.058 2°55.468 -999 -999 -999 -999
2007-09-25 06:35:30 51°14.067 2°55.461 -999 -999 -999 -999
2007-09-25 06:35:35 51°14.077 2°55.454 -999 -999 -999 -999
2007-09-25 06:35:40 51°14.087 2°55.446 -999 -999 -999 -999
2007-09-25 06:35:45 51°14.096 2°55.439 -999 -999 -999 -999
2007-09-25 06:35:50 51°14.106 2°55.431 -999 -999 -999 -999
2007-09-25 06:35:56 51°14.117 2°55.422 -999 -999 -999 -999
2007-09-25 06:36:01 51°14.126 2°55.414 -999 -999 -999 -999
2007-09-25 06:36:06 51°14.136 2°55.407 -999 -999 -999 -999
2007-09-25 06:36:11 51°14.145 2°55.399 -999 -999 -999 -999
2007-09-25 06:36:17 51°14.156 2°55.389 -999 -999 -999 -999
2007-09-25 06:36:22 51°14.165 2°55.381 -999 -999 -999 -999
2007-09-25 06:36:27 51°14.174 2°55.373 -999 -999 -999 -999
2007-09-25 06:36:33 51°14.184 2°55.362 -999 -999 -999 -999
2007-09-25 06:36:38 51°14.192 2°55.353 -999 -999 -999 -999
2007-09-25 06:36:43 51°14.2 2°55.344 -999 -999 -999 -999
2007-09-25 06:36:49 51°14.21 2°55.333 -999 -999 -999 -999
2007-09-25 06:36:53 51°14.215 2°55.325 -999 -999 -999 -999
2007-09-25 06:36:58 51°14.223 2°55.315 -999 -999 -999 -999
2007-09-25 06:37:03 51°14.229 2°55.305 -999 -999 -999 -999
2007-09-25 06:37:08 51°14.236 2°55.295 -999 -999 -999 -999
2007-09-25 06:37:13 51°14.244 2°55.284 -999 -999 -999 -999
2007-09-25 06:37:17 51°14.249 2°55.276 -999 -999 -999 -999
2007-09-25 06:37:22 51°14.257 2°55.265 -999 -999 -999 -999
2007-09-25 06:37:27 51°14.264 2°55.253 -999 -999 -999 -999
2007-09-25 06:37:31 51°14.27 2°55.244 -999 -999 -999 -999
2007-09-25 06:37:36 51°14.277 2°55.231 -999 -999 -999 -999
2007-09-25 06:37:41 51°14.285 2°55.218 -999 -999 -999 -999
2007-09-25 06:37:46 51°14.292 2°55.205 -999 -999 -999 -999
2007-09-25 06:37:50 51°14.298 2°55.195 -999 -999 -999 -999
2007-09-25 06:37:55 51°14.306 2°55.182 -999 -999 -999 -999
2007-09-25 06:38:00 51°14.313 2°55.168 -999 -999 -999 -999
2007-09-25 06:38:05 51°14.321 2°55.155 -999 -999 -999 -999
2007-09-25 06:38:10 51°14.328 2°55.141 -999 -999 -999 -999
2007-09-25 06:38:15 51°14.336 2°55.127 -999 -999 -999 -999
2007-09-25 06:38:20 51°14.343 2°55.113 -999 -999 -999 -999
2007-09-25 06:38:26 51°14.352 2°55.095 -999 -999 -999 -999
2007-09-25 06:38:30 51°14.359 2°55.083 -999 -999 -999 -999
2007-09-25 06:38:36 51°14.368 2°55.065 -999 -999 -999 -999
2007-09-25 06:38:40 51°14.375 2°55.052 -999 -999 -999 -999
2007-09-25 06:38:45 51°14.383 2°55.035 -999 -999 -999 -999
2007-09-25 06:38:50 51°14.392 2°55.018 -999 -999 -999 -999
2007-09-25 06:38:55 51°14.4 2°55 -999 -999 -999 -999
2007-09-25 06:39:00 51°14.41 2°54.982 -999 -999 -999 -999
2007-09-25 06:39:05 51°14.419 2°54.965 -999 -999 -999 -999
2007-09-25 06:39:10 51°14.43 2°54.948 -999 -999 -999 -999
2007-09-25 06:39:16 51°14.442 2°54.926 -999 -999 -999 -999
2007-09-25 06:39:20 51°14.451 2°54.912 -999 -999 -999 -999
2007-09-25 06:39:25 51°14.462 2°54.893 -999 -999 -999 -999
2007-09-25 06:39:30 51°14.474 2°54.876 -999 -999 -999 -999
2007-09-25 06:39:35 51°14.487 2°54.86 -999 -999 -999 -999
2007-09-25 06:39:41 51°14.504 2°54.843 -999 -999 -999 -999
2007-09-25 06:39:45 51°14.515 2°54.833 -999 -999 -999 -999
2007-09-25 06:39:51 51°14.533 2°54.819 -999 -999 -999 -999
2007-09-25 06:39:56 51°14.547 2°54.807 -999 -999 -999 -999
2007-09-25 06:40:01 51°14.563 2°54.798 -999 -999 -999 -999
2007-09-25 06:40:06 51°14.578 2°54.789 -999 -999 -999 -999
2007-09-25 06:40:11 51°14.593 2°54.78 -999 -999 -999 -999
2007-09-25 06:40:16 51°14.609 2°54.771 -999 -999 -999 -999
2007-09-25 06:40:21 51°14.625 2°54.762 -999 -999 -999 -999
2007-09-25 06:40:26 51°14.64 2°54.754 -999 -999 -999 -999
2007-09-25 06:40:31 51°14.656 2°54.745 -999 -999 -999 -999
2007-09-25 06:40:36 51°14.671 2°54.735 -999 -999 -999 -999
2007-09-25 06:40:41 51°14.687 2°54.726 -999 -999 -999 -999
2007-09-25 06:40:46 51°14.702 2°54.716 -999 -999 -999 -999
2007-09-25 06:40:51 51°14.718 2°54.706 -999 -999 -999 -999
2007-09-25 06:40:56 51°14.733 2°54.696 -999 -999 -999 -999
2007-09-25 06:41:01 51°14.748 2°54.685 -999 -999 -999 -999
2007-09-25 06:41:06 51°14.764 2°54.675 -999 -999 -999 -999
2007-09-25 06:41:10 51°14.776 2°54.667 -999 -999 -999 -999
2007-09-25 06:41:16 51°14.794 2°54.654 -999 -999 -999 -999
2007-09-25 06:41:21 51°14.81 2°54.645 -999 -999 -999 -999
2007-09-25 06:41:26 51°14.825 2°54.635 -999 -999 -999 -999
2007-09-25 06:41:30 51°14.837 2°54.628 -999 -999 -999 -999
2007-09-25 06:41:36 51°14.856 2°54.617 -999 -999 -999 -999
2007-09-25 06:41:41 51°14.871 2°54.608 -999 -999 -999 -999
2007-09-25 06:41:46 51°14.887 2°54.599 -999 -999 -999 -999
2007-09-25 06:41:51 51°14.903 2°54.59 -999 -999 -999 -999
2007-09-25 06:41:56 51°14.918 2°54.581 -999 -999 -999 -999
2007-09-25 06:42:01 51°14.933 2°54.572 -999 -999 -999 -999
2007-09-25 06:42:06 51°14.948 2°54.563 -999 -999 -999 -999
2007-09-25 06:42:10 51°14.961 2°54.555 -999 -999 -999 -999
2007-09-25 06:42:16 51°14.979 2°54.543 -999 -999 -999 -999
2007-09-25 06:42:21 51°14.993 2°54.533 -999 -999 -999 -999
2007-09-25 06:42:26 51°15.008 2°54.523 -999 -999 -999 -999
2007-09-25 06:42:31 51°15.022 2°54.512 -999 -999 -999 -999
2007-09-25 06:42:36 51°15.037 2°54.502 -999 -999 -999 -999
2007-09-25 06:42:41 51°15.052 2°54.491 -999 -999 -999 -999
2007-09-25 06:42:46 51°15.066 2°54.481 -999 -999 -999 -999
2007-09-25 06:42:51 51°15.081 2°54.471 -999 -999 -999 -999
2007-09-25 06:42:56 51°15.096 2°54.46 -999 -999 -999 -999
2007-09-25 06:43:01 51°15.111 2°54.449 -999 -999 -999 -999
2007-09-25 06:43:06 51°15.125 2°54.439 -999 -999 -999 -999
2007-09-25 06:43:11 51°15.139 2°54.428 -999 -999 -999 -999
2007-09-25 06:43:16 51°15.154 2°54.417 -999 -999 -999 -999
2007-09-25 06:43:21 51°15.169 2°54.406 -999 -999 -999 -999
2007-09-25 06:43:26 51°15.184 2°54.395 -999 -999 -999 -999
2007-09-25 06:43:30 51°15.196 2°54.387 -999 -999 -999 -999
2007-09-25 06:43:36 51°15.213 2°54.373 -999 -999 -999 -999
2007-09-25 06:43:41 51°15.228 2°54.362 -999 -999 -999 -999
2007-09-25 06:43:46 51°15.242 2°54.35 -999 -999 -999 -999
2007-09-25 06:43:51 51°15.257 2°54.339 -999 -999 -999 -999
2007-09-25 06:43:56 51°15.271 2°54.327 -999 -999 -999 -999
2007-09-25 06:44:01 51°15.286 2°54.315 -999 -999 -999 -999
2007-09-25 06:44:06 51°15.3 2°54.303 -999 -999 -999 -999
2007-09-25 06:44:10 51°15.312 2°54.294 -999 -999 -999 -999
2007-09-25 06:44:15 51°15.327 2°54.282 -999 -999 -999 -999
2007-09-25 06:44:21 51°15.345 2°54.269 -999 -999 -999 -999
2007-09-25 06:44:26 51°15.36 2°54.259 -999 -999 -999 -999
2007-09-25 06:44:31 51°15.374 2°54.247 -999 -999 -999 -999
2007-09-25 06:44:36 51°15.389 2°54.236 -999 -999 -999 -999
2007-09-25 06:44:41 51°15.404 2°54.225 -999 -999 -999 -999
2007-09-25 06:44:46 51°15.419 2°54.215 -999 -999 -999 -999
2007-09-25 06:44:51 51°15.434 2°54.204 -999 -999 -999 -999
2007-09-25 06:44:56 51°15.449 2°54.193 -999 -999 -999 -999
2007-09-25 06:45:01 51°15.464 2°54.182 -999 -999 -999 -999
2007-09-25 06:45:06 51°15.479 2°54.171 -999 -999 -999 -999
2007-09-25 06:45:11 51°15.494 2°54.161 -999 -999 -999 -999
2007-09-25 06:45:16 51°15.509 2°54.15 -999 -999 -999 -999
2007-09-25 06:45:21 51°15.524 2°54.139 -999 -999 -999 -999
2007-09-25 06:45:26 51°15.539 2°54.128 -999 -999 -999 -999
2007-09-25 06:45:31 51°15.554 2°54.117 -999 -999 -999 -999
2007-09-25 06:45:36 51°15.569 2°54.105 -999 -999 -999 -999
2007-09-25 06:45:41 51°15.584 2°54.094 -999 -999 -999 -999
2007-09-25 06:45:46 51°15.599 2°54.084 -999 -999 -999 -999
2007-09-25 06:45:51 51°15.614 2°54.073 -999 -999 -999 -999
2007-09-25 06:45:56 51°15.629 2°54.062 -999 -999 -999 -999
2007-09-25 06:46:01 51°15.644 2°54.051 -999 -999 -999 -999
2007-09-25 06:46:06 51°15.659 2°54.04 -999 -999 -999 -999
2007-09-25 06:46:10 51°15.671 2°54.032 -999 -999 -999 -999
2007-09-25 06:46:16 51°15.689 2°54.018 -999 -999 -999 -999
2007-09-25 06:46:21 51°15.704 2°54.008 -999 -999 -999 -999
2007-09-25 06:46:26 51°15.719 2°53.997 -999 -999 -999 -999
2007-09-25 06:46:31 51°15.734 2°53.987 -999 -999 -999 -999
2007-09-25 06:46:36 51°15.749 2°53.976 -999 -999 -999 -999
2007-09-25 06:46:41 51°15.765 2°53.965 -999 -999 -999 -999
2007-09-25 06:46:46 51°15.78 2°53.955 -999 -999 -999 -999
2007-09-25 06:46:51 51°15.795 2°53.943 -999 -999 -999 -999
2007-09-25 06:46:55 51°15.807 2°53.934 -999 -999 -999 -999
2007-09-25 06:47:01 51°15.825 2°53.921 -999 -999 -999 -999
2007-09-25 06:47:06 51°15.84 2°53.911 -999 -999 -999 -999
2007-09-25 06:47:11 51°15.855 2°53.9 -999 -999 -999 -999
2007-09-25 06:47:16 51°15.87 2°53.889 -999 -999 -999 -999
2007-09-25 06:47:21 51°15.885 2°53.878 -999 -999 -999 -999
2007-09-25 06:47:26 51°15.899 2°53.867 -999 -999 -999 -999
2007-09-25 06:47:31 51°15.915 2°53.857 -999 -999 -999 -999
2007-09-25 06:47:36 51°15.929 2°53.849 -999 -999 -999 -999
2007-09-25 06:47:41 51°15.944 2°53.847 -999 -999 -999 -999
2007-09-25 06:47:46 51°15.958 2°53.848 -999 -999 -999 -999
2007-09-25 06:47:51 51°15.972 2°53.853 -999 -999 -999 -999
2007-09-25 06:47:56 51°15.983 2°53.862 -999 -999 -999 -999
2007-09-25 06:48:01 51°15.995 2°53.871 -999 -999 -999 -999
2007-09-25 06:48:06 51°16.004 2°53.884 -999 -999 -999 -999
2007-09-25 06:48:11 51°16.012 2°53.898 -999 -999 -999 -999
2007-09-25 06:48:16 51°16.018 2°53.914 -999 -999 -999 -999
2007-09-25 06:48:21 51°16.025 2°53.93 -999 -999 -999 -999
2007-09-25 06:48:26 51°16.031 2°53.947 -999 -999 -999 -999
2007-09-25 06:48:31 51°16.038 2°53.963 -999 -999 -999 -999
2007-09-25 06:48:36 51°16.044 2°53.98 -999 -999 -999 -999
2007-09-25 06:48:41 51°16.052 2°53.994 -999 -999 -999 -999
2007-09-25 06:48:46 51°16.061 2°54.008 -999 -999 -999 -999
2007-09-25 06:48:50 51°16.068 2°54.018 -999 -999 -999 -999
2007-09-25 06:48:55 51°16.078 2°54.029 -999 -999 -999 -999
2007-09-25 06:49:01 51°16.091 2°54.042 -999 -999 -999 -999
2007-09-25 06:49:06 51°16.101 2°54.054 -999 -999 -999 -999
2007-09-25 06:49:11 51°16.111 2°54.066 -999 -999 -999 -999
2007-09-25 06:49:16 51°16.121 2°54.079 -999 -999 -999 -999
2007-09-25 06:49:21 51°16.13 2°54.092 -999 -999 -999 -999
2007-09-25 06:49:26 51°16.139 2°54.106 -999 -999 -999 -999
2007-09-25 06:49:31 51°16.147 2°54.122 -999 -999 -999 -999
2007-09-25 06:49:36 51°16.155 2°54.137 -999 -999 -999 -999
2007-09-25 06:49:41 51°16.163 2°54.153 -999 -999 -999 -999
2007-09-25 06:49:46 51°16.171 2°54.169 -999 -999 -999 -999
2007-09-25 06:49:51 51°16.179 2°54.184 -999 -999 -999 -999
2007-09-25 06:49:56 51°16.188 2°54.198 -999 -999 -999 -999
2007-09-25 06:50:01 51°16.197 2°54.211 -999 -999 -999 -999
2007-09-25 06:50:06 51°16.207 2°54.222 -999 -999 -999 -999
2007-09-25 06:50:11 51°16.215 2°54.231 -999 -999 -999 -999
2007-09-25 06:50:16 51°16.224 2°54.238 -999 -999 -999 -999
2007-09-25 06:50:21 51°16.232 2°54.245 -999 -999 -999 -999
2007-09-25 06:50:26 51°16.24 2°54.251 -999 -999 -999 -999
2007-09-25 06:50:31 51°16.247 2°54.256 -999 -999 -999 -999
2007-09-25 06:50:36 51°16.253 2°54.262 -999 -999 -999 -999
2007-09-25 06:50:41 51°16.258 2°54.268 -999 -999 -999 -999
2007-09-25 06:50:46 51°16.263 2°54.274 -999 -999 -999 -999
2007-09-25 06:50:50 51°16.266 2°54.278 -999 -999 -999 -999
2007-09-25 06:50:55 51°16.27 2°54.283 -999 -999 -999 -999
2007-09-25 06:51:01 51°16.274 2°54.287 -999 -999 -999 -999
2007-09-25 06:51:06 51°16.276 2°54.29 -999 -999 -999 -999
2007-09-25 06:51:11 51°16.278 2°54.292 -999 -999 -999 -999
2007-09-25 06:51:16 51°16.28 2°54.292 -999 -999 -999 -999
2007-09-25 06:51:21 51°16.281 2°54.292 -999 -999 -999 -999
2007-09-25 06:51:26 51°16.282 2°54.291 -999 -999 -999 -999
2007-09-25 06:51:31 51°16.282 2°54.291 -999 -999 -999 -999
2007-09-25 06:51:36 51°16.283 2°54.29 -999 -999 -999 -999
2007-09-25 06:51:41 51°16.284 2°54.289 -999 -999 -999 -999
2007-09-25 06:51:46 51°16.285 2°54.288 -999 -999 -999 -999
2007-09-25 06:51:51 51°16.285 2°54.286 -999 -999 -999 -999
2007-09-25 06:51:56 51°16.286 2°54.285 -999 -999 -999 -999
2007-09-25 06:52:01 51°16.287 2°54.284 -999 -999 -999 -999
2007-09-25 06:52:06 51°16.287 2°54.283 -999 -999 -999 -999
2007-09-25 06:52:11 51°16.288 2°54.282 -999 -999 -999 -999
2007-09-25 06:52:16 51°16.289 2°54.281 -999 -999 -999 -999
2007-09-25 06:52:21 51°16.289 2°54.279 -999 -999 -999 -999
2007-09-25 06:52:26 51°16.29 2°54.278 -999 -999 -999 -999
2007-09-25 06:52:31 51°16.291 2°54.276 -999 -999 -999 -999
2007-09-25 06:52:36 51°16.291 2°54.275 -999 -999 -999 -999
2007-09-25 06:52:41 51°16.292 2°54.273 -999 -999 -999 -999
2007-09-25 06:52:46 51°16.292 2°54.272 -999 -999 -999 -999
2007-09-25 06:52:50 51°16.293 2°54.27 -999 -999 -999 -999
2007-09-25 06:52:56 51°16.293 2°54.268 -999 -999 -999 -999
2007-09-25 06:53:01 51°16.294 2°54.267 -999 -999 -999 -999
2007-09-25 06:53:06 51°16.294 2°54.265 -999 -999 -999 -999
2007-09-25 06:53:11 51°16.295 2°54.263 -999 -999 -999 -999
2007-09-25 06:53:16 51°16.295 2°54.261 -999 -999 -999 -999
2007-09-25 06:53:21 51°16.295 2°54.259 -999 -999 -999 -999
2007-09-25 06:53:26 51°16.296 2°54.257 -999 -999 -999 -999
2007-09-25 06:53:30 51°16.296 2°54.256 -999 -999 -999 -999
2007-09-25 06:53:35 51°16.296 2°54.254 -999 -999 -999 -999
2007-09-25 06:53:40 51°16.296 2°54.253 -999 -999 -999 -999
2007-09-25 06:53:46 51°16.297 2°54.25 -999 -999 -999 -999
2007-09-25 06:53:51 51°16.297 2°54.249 -999 -999 -999 -999
2007-09-25 06:53:56 51°16.297 2°54.247 -999 -999 -999 -999
2007-09-25 06:54:01 51°16.297 2°54.245 -999 -999 -999 -999
2007-09-25 06:54:06 51°16.297 2°54.244 -999 -999 -999 -999
2007-09-25 06:54:11 51°16.297 2°54.242 -999 -999 -999 -999
2007-09-25 06:54:16 51°16.297 2°54.24 -999 -999 -999 -999
2007-09-25 06:54:21 51°16.297 2°54.239 -999 -999 -999 -999
2007-09-25 06:54:26 51°16.297 2°54.237 -999 -999 -999 -999
2007-09-25 06:54:31 51°16.297 2°54.236 -999 -999 -999 -999
2007-09-25 06:54:36 51°16.297 2°54.234 -999 -999 -999 -999
2007-09-25 06:54:41 51°16.297 2°54.232 -999 -999 -999 -999
2007-09-25 06:54:46 51°16.297 2°54.231 -999 -999 -999 -999
2007-09-25 06:54:50 51°16.297 2°54.23 -999 -999 -999 -999
2007-09-25 06:54:56 51°16.296 2°54.227 -999 -999 -999 -999
2007-09-25 06:55:01 51°16.296 2°54.226 -999 -999 -999 -999
2007-09-25 06:55:06 51°16.295 2°54.224 -999 -999 -999 -999
2007-09-25 06:55:11 51°16.295 2°54.223 -999 -999 -999 -999
2007-09-25 06:55:16 51°16.294 2°54.221 -999 -999 -999 -999
2007-09-25 06:55:21 51°16.294 2°54.22 -999 -999 -999 -999
2007-09-25 06:55:26 51°16.294 2°54.219 -999 -999 -999 -999
2007-09-25 06:55:30 51°16.294 2°54.218 -999 -999 -999 -999
2007-09-25 06:55:35 51°16.294 2°54.216 -999 -999 -999 -999
2007-09-25 06:55:41 51°16.293 2°54.214 -999 -999 -999 -999
2007-09-25 06:55:46 51°16.294 2°54.212 -999 -999 -999 -999
2007-09-25 06:55:50 51°16.294 2°54.211 -999 -999 -999 -999
2007-09-25 06:55:56 51°16.295 2°54.208 -999 -999 -999 -999
2007-09-25 06:56:01 51°16.296 2°54.205 -999 -999 -999 -999
2007-09-25 06:56:06 51°16.298 2°54.201 -999 -999 -999 -999
2007-09-25 06:56:11 51°16.299 2°54.197 -999 -999 -999 -999
2007-09-25 06:56:16 51°16.301 2°54.192 -999 -999 -999 -999
2007-09-25 06:56:21 51°16.304 2°54.187 -999 -999 -999 -999
2007-09-25 06:56:26 51°16.307 2°54.181 -999 -999 -999 -999
2007-09-25 06:56:31 51°16.311 2°54.174 -999 -999 -999 -999
2007-09-25 06:56:36 51°16.315 2°54.166 -999 -999 -999 -999
2007-09-25 06:56:41 51°16.32 2°54.157 -999 -999 -999 -999
2007-09-25 06:56:46 51°16.325 2°54.147 -999 -999 -999 -999
2007-09-25 06:56:51 51°16.331 2°54.136 -999 -999 -999 -999
2007-09-25 06:56:56 51°16.338 2°54.125 -999 -999 -999 -999
2007-09-25 06:57:01 51°16.346 2°54.112 -999 -999 -999 -999
2007-09-25 06:57:06 51°16.355 2°54.099 -999 -999 -999 -999
2007-09-25 06:57:10 51°16.362 2°54.087 -999 -999 -999 -999
2007-09-25 06:57:16 51°16.375 2°54.069 -999 -999 -999 -999
2007-09-25 06:57:21 51°16.386 2°54.053 -999 -999 -999 -999
2007-09-25 06:57:26 51°16.397 2°54.037 -999 -999 -999 -999
2007-09-25 06:57:30 51°16.407 2°54.023 -999 -999 -999 -999
2007-09-25 06:57:36 51°16.42 2°54.002 -999 -999 -999 -999
2007-09-25 06:57:41 51°16.432 2°53.983 -999 -999 -999 -999
2007-09-25 06:57:46 51°16.443 2°53.964 -999 -999 -999 -999
2007-09-25 06:57:50 51°16.452 2°53.949 -999 -999 -999 -999
2007-09-25 06:57:56 51°16.466 2°53.926 -999 -999 -999 -999
2007-09-25 06:58:01 51°16.477 2°53.907 -999 -999 -999 -999
2007-09-25 06:58:06 51°16.489 2°53.887 -999 -999 -999 -999
2007-09-25 06:58:11 51°16.5 2°53.867 -999 -999 -999 -999
2007-09-25 06:58:16 51°16.512 2°53.847 -999 -999 -999 -999
2007-09-25 06:58:21 51°16.523 2°53.826 -999 -999 -999 -999
2007-09-25 06:58:26 51°16.535 2°53.806 -999 -999 -999 -999
2007-09-25 06:58:30 51°16.544 2°53.79 -999 -999 -999 -999
2007-09-25 06:58:36 51°16.557 2°53.766 -999 -999 -999 -999
2007-09-25 06:58:41 51°16.569 2°53.745 -999 -999 -999 -999
2007-09-25 06:58:46 51°16.58 2°53.725 -999 -999 -999 -999
2007-09-25 06:58:51 51°16.592 2°53.705 -999 -999 -999 -999
2007-09-25 06:58:56 51°16.604 2°53.685 -999 -999 -999 -999
2007-09-25 06:59:01 51°16.615 2°53.665 -999 -999 -999 -999
2007-09-25 06:59:06 51°16.627 2°53.645 -999 -999 -999 -999
2007-09-25 06:59:11 51°16.638 2°53.625 -999 -999 -999 -999
2007-09-25 06:59:16 51°16.65 2°53.606 -999 -999 -999 -999
2007-09-25 06:59:21 51°16.661 2°53.586 -999 -999 -999 -999
2007-09-25 06:59:26 51°16.673 2°53.566 -999 -999 -999 -999
2007-09-25 06:59:30 51°16.682 2°53.55 -999 -999 -999 -999
2007-09-25 06:59:36 51°16.695 2°53.527 -999 -999 -999 -999
2007-09-25 06:59:41 51°16.707 2°53.507 -999 -999 -999 -999
2007-09-25 06:59:46 51°16.718 2°53.487 -999 -999 -999 -999
2007-09-25 06:59:50 51°16.727 2°53.471 -999 -999 -999 -999
2007-09-25 06:59:56 51°16.74 2°53.447 -999 -999 -999 -999
2007-09-25 07:00:01 51°16.752 2°53.427 -999 -999 -999 -999
2007-09-25 07:00:06 51°16.763 2°53.408 -999 -999 -999 -999
2007-09-25 07:00:11 51°16.774 2°53.388 -999 -999 -999 -999
2007-09-25 07:00:16 51°16.786 2°53.368 -999 -999 -999 -999
2007-09-25 07:00:21 51°16.797 2°53.348 -999 -999 -999 -999
2007-09-25 07:00:26 51°16.809 2°53.329 -999 -999 -999 -999
2007-09-25 07:00:30 51°16.818 2°53.313 -999 -999 -999 -999
2007-09-25 07:00:36 51°16.831 2°53.288 -999 -999 -999 -999
2007-09-25 07:00:41 51°16.842 2°53.269 -999 -999 -999 -999
2007-09-25 07:00:46 51°16.853 2°53.248 -999 -999 -999 -999
2007-09-25 07:00:51 51°16.864 2°53.228 -999 -999 -999 -999
2007-09-25 07:00:56 51°16.875 2°53.208 -999 -999 -999 -999
2007-09-25 07:01:00 51°16.884 2°53.193 -999 -999 -999 -999
2007-09-25 07:01:06 51°16.897 2°53.169 -999 -999 -999 -999
2007-09-25 07:01:11 51°16.907 2°53.15 -999 -999 -999 -999
2007-09-25 07:01:16 51°16.918 2°53.131 -999 -999 -999 -999
2007-09-25 07:01:21 51°16.929 2°53.112 -999 -999 -999 -999
2007-09-25 07:01:26 51°16.94 2°53.093 -999 -999 -999 -999
2007-09-25 07:01:31 51°16.951 2°53.074 -999 -999 -999 -999
2007-09-25 07:01:36 51°16.962 2°53.055 -999 -999 -999 -999
2007-09-25 07:01:41 51°16.972 2°53.036 -999 -999 -999 -999
2007-09-25 07:01:46 51°16.983 2°53.017 -999 -999 -999 -999
2007-09-25 07:01:51 51°16.995 2°52.998 -999 -999 -999 -999
2007-09-25 07:01:56 51°17.006 2°52.978 -999 -999 -999 -999
2007-09-25 07:02:01 51°17.017 2°52.958 -999 -999 -999 -999
2007-09-25 07:02:06 51°17.028 2°52.939 -999 -999 -999 -999
2007-09-25 07:02:11 51°17.039 2°52.92 -999 -999 -999 -999
2007-09-25 07:02:15 51°17.048 2°52.904 -999 -999 -999 -999
2007-09-25 07:02:21 51°17.061 2°52.882 -999 -999 -999 -999
2007-09-25 07:02:26 51°17.072 2°52.863 -999 -999 -999 -999
2007-09-25 07:02:30 51°17.081 2°52.847 -999 -999 -999 -999
2007-09-25 07:02:36 51°17.094 2°52.824 -999 -999 -999 -999
2007-09-25 07:02:41 51°17.106 2°52.804 -999 -999 -999 -999
2007-09-25 07:02:46 51°17.117 2°52.785 -999 -999 -999 -999
2007-09-25 07:02:51 51°17.129 2°52.765 -999 -999 -999 -999
2007-09-25 07:02:56 51°17.14 2°52.746 -999 -999 -999 -999
2007-09-25 07:03:00 51°17.149 2°52.731 -999 -999 -999 -999
2007-09-25 07:03:06 51°17.163 2°52.708 -999 -999 -999 -999
2007-09-25 07:03:11 51°17.174 2°52.689 -999 -999 -999 -999
2007-09-25 07:03:16 51°17.186 2°52.669 -999 -999 -999 -999
2007-09-25 07:03:21 51°17.197 2°52.65 -999 -999 -999 -999
2007-09-25 07:03:26 51°17.208 2°52.631 -999 -999 -999 -999
2007-09-25 07:03:31 51°17.22 2°52.613 -999 -999 -999 -999
2007-09-25 07:03:36 51°17.231 2°52.593 -999 -999 -999 -999
2007-09-25 07:03:41 51°17.242 2°52.574 -999 -999 -999 -999
2007-09-25 07:03:46 51°17.253 2°52.554 -999 -999 -999 -999
2007-09-25 07:03:51 51°17.265 2°52.536 -999 -999 -999 -999
2007-09-25 07:03:56 51°17.276 2°52.515 -999 -999 -999 -999
2007-09-25 07:04:01 51°17.287 2°52.496 -999 -999 -999 -999
2007-09-25 07:04:06 51°17.298 2°52.476 -999 -999 -999 -999
2007-09-25 07:04:10 51°17.307 2°52.461 -999 -999 -999 -999
2007-09-25 07:04:16 51°17.32 2°52.437 -999 -999 -999 -999
2007-09-25 07:04:21 51°17.331 2°52.417 -999 -999 -999 -999
2007-09-25 07:04:26 51°17.342 2°52.397 -999 -999 -999 -999
2007-09-25 07:04:30 51°17.351 2°52.381 -999 -999 -999 -999
2007-09-25 07:04:36 51°17.365 2°52.358 -999 -999 -999 -999
2007-09-25 07:04:41 51°17.376 2°52.338 -999 -999 -999 -999
2007-09-25 07:04:46 51°17.387 2°52.318 -999 -999 -999 -999
2007-09-25 07:04:51 51°17.398 2°52.299 -999 -999 -999 -999
2007-09-25 07:04:56 51°17.409 2°52.279 -999 -999 -999 -999
2007-09-25 07:05:01 51°17.421 2°52.259 -999 -999 -999 -999
2007-09-25 07:05:06 51°17.432 2°52.239 -999 -999 -999 -999
2007-09-25 07:05:11 51°17.443 2°52.22 -999 -999 -999 -999
2007-09-25 07:05:16 51°17.454 2°52.2 -999 -999 -999 -999
2007-09-25 07:05:21 51°17.465 2°52.181 -999 -999 -999 -999
2007-09-25 07:05:26 51°17.477 2°52.161 -999 -999 -999 -999
2007-09-25 07:05:31 51°17.488 2°52.142 -999 -999 -999 -999
2007-09-25 07:05:36 51°17.499 2°52.122 -999 -999 -999 -999
2007-09-25 07:05:41 51°17.511 2°52.103 -999 -999 -999 -999
2007-09-25 07:05:46 51°17.522 2°52.084 -999 -999 -999 -999
2007-09-25 07:05:51 51°17.533 2°52.064 -999 -999 -999 -999
2007-09-25 07:05:56 51°17.545 2°52.045 -999 -999 -999 -999
2007-09-25 07:06:01 51°17.556 2°52.025 -999 -999 -999 -999
2007-09-25 07:06:06 51°17.567 2°52.005 -999 -999 -999 -999
2007-09-25 07:06:11 51°17.578 2°51.985 -999 -999 -999 -999
2007-09-25 07:06:16 51°17.589 2°51.966 -999 -999 -999 -999
2007-09-25 07:06:21 51°17.601 2°51.947 -999 -999 -999 -999
2007-09-25 07:06:26 51°17.612 2°51.927 -999 -999 -999 -999
2007-09-25 07:06:31 51°17.623 2°51.908 -999 -999 -999 -999
2007-09-25 07:06:36 51°17.634 2°51.889 -999 -999 -999 -999
2007-09-25 07:06:41 51°17.646 2°51.87 -999 -999 -999 -999
2007-09-25 07:06:46 51°17.657 2°51.85 -999 -999 -999 -999
2007-09-25 07:06:51 51°17.668 2°51.831 -999 -999 -999 -999
2007-09-25 07:06:56 51°17.679 2°51.811 -999 -999 -999 -999
2007-09-25 07:07:01 51°17.691 2°51.792 -999 -999 -999 -999
2007-09-25 07:07:06 51°17.702 2°51.773 -999 -999 -999 -999
2007-09-25 07:07:11 51°17.713 2°51.753 -999 -999 -999 -999
2007-09-25 07:07:16 51°17.725 2°51.734 -999 -999 -999 -999
2007-09-25 07:07:21 51°17.736 2°51.715 -999 -999 -999 -999
2007-09-25 07:07:26 51°17.747 2°51.695 -999 -999 -999 -999
2007-09-25 07:07:31 51°17.758 2°51.675 -999 -999 -999 -999
2007-09-25 07:07:36 51°17.769 2°51.655 -999 -999 -999 -999
2007-09-25 07:07:41 51°17.781 2°51.636 -999 -999 -999 -999
2007-09-25 07:07:46 51°17.792 2°51.617 -999 -999 -999 -999
2007-09-25 07:07:51 51°17.804 2°51.598 -999 -999 -999 -999
2007-09-25 07:07:56 51°17.816 2°51.579 -999 -999 -999 -999
2007-09-25 07:08:01 51°17.827 2°51.56 -999 -999 -999 -999
2007-09-25 07:08:06 51°17.839 2°51.541 -999 -999 -999 -999
2007-09-25 07:08:11 51°17.85 2°51.522 -999 -999 -999 -999
2007-09-25 07:08:16 51°17.862 2°51.504 -999 -999 -999 -999
2007-09-25 07:08:21 51°17.874 2°51.485 -999 -999 -999 -999
2007-09-25 07:08:26 51°17.885 2°51.467 -999 -999 -999 -999
2007-09-25 07:08:31 51°17.897 2°51.448 -999 -999 -999 -999
2007-09-25 07:08:36 51°17.909 2°51.43 -999 -999 -999 -999
2007-09-25 07:08:41 51°17.92 2°51.411 -999 -999 -999 -999
2007-09-25 07:08:46 51°17.932 2°51.392 -999 -999 -999 -999
2007-09-25 07:08:50 51°17.941 2°51.376 -999 -999 -999 -999
2007-09-25 07:08:56 51°17.955 2°51.353 -999 -999 -999 -999
2007-09-25 07:09:01 51°17.966 2°51.334 -999 -999 -999 -999
2007-09-25 07:09:06 51°17.978 2°51.315 -999 -999 -999 -999
2007-09-25 07:09:11 51°17.99 2°51.296 -999 -999 -999 -999
2007-09-25 07:09:16 51°18.001 2°51.277 -999 -999 -999 -999
2007-09-25 07:09:21 51°18.014 2°51.258 -999 -999 -999 -999
2007-09-25 07:09:26 51°18.026 2°51.24 -999 -999 -999 -999
2007-09-25 07:09:31 51°18.038 2°51.221 -999 -999 -999 -999
2007-09-25 07:09:36 51°18.05 2°51.203 -999 -999 -999 -999
2007-09-25 07:09:41 51°18.063 2°51.185 -999 -999 -999 -999
2007-09-25 07:09:46 51°18.075 2°51.167 -999 -999 -999 -999
2007-09-25 07:09:50 51°18.085 2°51.152 -999 -999 -999 -999
2007-09-25 07:09:56 51°18.099 2°51.131 -999 -999 -999 -999
2007-09-25 07:10:01 51°18.111 2°51.113 -999 -999 -999 -999
2007-09-25 07:10:06 51°18.123 2°51.094 -999 -999 -999 -999
2007-09-25 07:10:11 51°18.135 2°51.076 -999 -999 -999 -999
2007-09-25 07:10:16 51°18.147 2°51.057 -999 -999 -999 -999
2007-09-25 07:10:21 51°18.159 2°51.039 -999 -999 -999 -999
2007-09-25 07:10:26 51°18.171 2°51.021 -999 -999 -999 -999
2007-09-25 07:10:31 51°18.183 2°51.003 -999 -999 -999 -999
2007-09-25 07:10:36 51°18.195 2°50.985 -999 -999 -999 -999
2007-09-25 07:10:41 51°18.207 2°50.967 -999 -999 -999 -999
2007-09-25 07:10:46 51°18.219 2°50.95 -999 -999 -999 -999
2007-09-25 07:10:51 51°18.231 2°50.932 -999 -999 -999 -999
2007-09-25 07:10:56 51°18.243 2°50.914 -999 -999 -999 -999
2007-09-25 07:11:01 51°18.254 2°50.896 -999 -999 -999 -999
2007-09-25 07:11:06 51°18.266 2°50.877 -999 -999 -999 -999
2007-09-25 07:11:11 51°18.278 2°50.859 -999 -999 -999 -999
2007-09-25 07:11:16 51°18.29 2°50.841 -999 -999 -999 -999
2007-09-25 07:11:21 51°18.302 2°50.824 -999 -999 -999 -999
2007-09-25 07:11:26 51°18.313 2°50.805 -999 -999 -999 -999
2007-09-25 07:11:30 51°18.323 2°50.791 -999 -999 -999 -999
2007-09-25 07:11:36 51°18.337 2°50.769 -999 -999 -999 -999
2007-09-25 07:11:41 51°18.349 2°50.752 -999 -999 -999 -999
2007-09-25 07:11:46 51°18.362 2°50.74 -999 -999 -999 -999
2007-09-25 07:11:51 51°18.375 2°50.734 -999 -999 -999 -999
2007-09-25 07:11:56 51°18.386 2°50.73 -999 -999 -999 -999
2007-09-25 07:12:01 51°18.397 2°50.731 -999 -999 -999 -999
2007-09-25 07:12:06 51°18.407 2°50.735 -999 -999 -999 -999
2007-09-25 07:12:11 51°18.415 2°50.741 -999 -999 -999 -999
2007-09-25 07:12:16 51°18.422 2°50.75 -999 -999 -999 -999
2007-09-25 07:12:21 51°18.43 2°50.759 -999 -999 -999 -999
2007-09-25 07:12:26 51°18.436 2°50.77 -999 -999 -999 -999
2007-09-25 07:12:31 51°18.443 2°50.781 -999 -999 -999 -999
2007-09-25 07:12:36 51°18.448 2°50.794 -999 -999 -999 -999
2007-09-25 07:12:41 51°18.454 2°50.807 -999 -999 -999 -999
2007-09-25 07:12:46 51°18.459 2°50.821 -999 -999 -999 -999
2007-09-25 07:12:51 51°18.464 2°50.834 -999 -999 -999 -999
2007-09-25 07:12:56 51°18.468 2°50.85 -999 -999 -999 -999
2007-09-25 07:13:01 51°18.473 2°50.863 -999 -999 -999 -999
2007-09-25 07:13:06 51°18.475 2°50.877 -999 -999 -999 -999
2007-09-25 07:13:11 51°18.477 2°50.89 -999 -999 -999 -999
2007-09-25 07:13:16 51°18.479 2°50.903 -999 -999 -999 -999
2007-09-25 07:13:21 51°18.48 2°50.915 -999 -999 -999 -999
2007-09-25 07:13:26 51°18.481 2°50.926 -999 -999 -999 -999
2007-09-25 07:13:31 51°18.484 2°50.937 -999 -999 -999 -999
2007-09-25 07:13:36 51°18.484 2°50.947 -999 -999 -999 -999
2007-09-25 07:13:41 51°18.487 2°50.956 -999 -999 -999 -999
2007-09-25 07:13:46 51°18.488 2°50.964 -999 -999 -999 -999
2007-09-25 07:13:51 51°18.491 2°50.971 -999 -999 -999 -999
2007-09-25 07:13:56 51°18.493 2°50.978 -999 -999 -999 -999
2007-09-25 07:14:01 51°18.495 2°50.985 -999 -999 -999 -999
2007-09-25 07:14:06 51°18.498 2°50.99 -999 -999 -999 -999
2007-09-25 07:14:10 51°18.5 2°50.994 -999 -999 -999 -999
2007-09-25 07:14:16 51°18.503 2°50.999 -999 -999 -999 -999
2007-09-25 07:14:21 51°18.505 2°51.003 -999 -999 -999 -999
2007-09-25 07:14:26 51°18.507 2°51.006 -999 -999 -999 -999
2007-09-25 07:14:31 51°18.509 2°51.009 -999 -999 -999 -999
2007-09-25 07:14:36 51°18.51 2°51.012 -999 -999 -999 -999
2007-09-25 07:14:41 51°18.512 2°51.015 -999 -999 -999 -999
2007-09-25 07:14:46 51°18.513 2°51.017 -999 -999 -999 -999
2007-09-25 07:14:51 51°18.514 2°51.02 -999 -999 -999 -999
2007-09-25 07:14:56 51°18.514 2°51.023 -999 -999 -999 -999
2007-09-25 07:15:01 51°18.515 2°51.025 -999 -999 -999 -999
2007-09-25 07:15:06 51°18.515 2°51.028 -999 -999 -999 -999
2007-09-25 07:15:11 51°18.516 2°51.03 -999 -999 -999 -999
2007-09-25 07:15:16 51°18.516 2°51.032 -999 -999 -999 -999
2007-09-25 07:15:21 51°18.516 2°51.035 -999 -999 -999 -999
2007-09-25 07:15:26 51°18.516 2°51.037 -999 -999 -999 -999
2007-09-25 07:15:31 51°18.516 2°51.039 -999 -999 -999 -999
2007-09-25 07:15:36 51°18.516 2°51.041 -999 -999 -999 -999
2007-09-25 07:15:41 51°18.516 2°51.043 -999 -999 -999 -999
2007-09-25 07:15:46 51°18.516 2°51.045 -999 -999 -999 -999
2007-09-25 07:15:50 51°18.516 2°51.047 -999 -999 -999 -999
2007-09-25 07:15:56 51°18.516 2°51.05 -999 -999 -999 -999
2007-09-25 07:16:01 51°18.516 2°51.051 -999 -999 -999 -999
2007-09-25 07:16:06 51°18.516 2°51.053 -999 -999 -999 -999
2007-09-25 07:16:11 51°18.515 2°51.054 -999 -999 -999 -999
2007-09-25 07:16:16 51°18.515 2°51.056 -999 -999 -999 -999
2007-09-25 07:16:21 51°18.514 2°51.057 -999 -999 -999 -999
2007-09-25 07:16:26 51°18.513 2°51.058 -999 -999 -999 -999
2007-09-25 07:16:31 51°18.513 2°51.059 -999 -999 -999 -999
2007-09-25 07:16:36 51°18.512 2°51.06 -999 -999 -999 -999
2007-09-25 07:16:41 51°18.511 2°51.061 -999 -999 -999 -999
2007-09-25 07:16:46 51°18.511 2°51.061 -999 -999 -999 -999
2007-09-25 07:16:51 51°18.51 2°51.062 -999 -999 -999 -999
2007-09-25 07:16:56 51°18.509 2°51.063 -999 -999 -999 -999
2007-09-25 07:17:01 51°18.508 2°51.063 -999 -999 -999 -999
2007-09-25 07:17:06 51°18.507 2°51.064 -999 -999 -999 -999
2007-09-25 07:17:11 51°18.506 2°51.065 -999 -999 -999 -999
2007-09-25 07:17:16 51°18.505 2°51.065 -999 -999 -999 -999
2007-09-25 07:17:21 51°18.504 2°51.066 -999 -999 -999 -999
2007-09-25 07:17:26 51°18.503 2°51.066 -999 -999 -999 -999
2007-09-25 07:17:31 51°18.502 2°51.066 -999 -999 -999 -999
2007-09-25 07:17:36 51°18.501 2°51.066 -999 -999 -999 -999
2007-09-25 07:17:41 51°18.5 2°51.067 -999 -999 -999 -999
2007-09-25 07:17:46 51°18.499 2°51.067 -999 -999 -999 -999
2007-09-25 07:17:50 51°18.498 2°51.067 -999 -999 -999 -999
2007-09-25 07:17:56 51°18.497 2°51.067 -999 -999 -999 -999
2007-09-25 07:18:01 51°18.496 2°51.067 -999 -999 -999 -999
2007-09-25 07:18:06 51°18.495 2°51.067 -999 -999 -999 -999
2007-09-25 07:18:11 51°18.494 2°51.067 -999 -999 -999 -999
2007-09-25 07:18:16 51°18.493 2°51.067 -999 -999 -999 -999
2007-09-25 07:18:21 51°18.492 2°51.067 -999 -999 -999 -999
2007-09-25 07:18:26 51°18.491 2°51.066 -999 -999 -999 -999
2007-09-25 07:18:30 51°18.49 2°51.067 -999 -999 -999 -999
2007-09-25 07:18:36 51°18.488 2°51.067 -999 -999 -999 -999
2007-09-25 07:18:41 51°18.487 2°51.067 -999 -999 -999 -999
2007-09-25 07:18:46 51°18.486 2°51.067 -999 -999 -999 -999
2007-09-25 07:18:51 51°18.485 2°51.066 -999 -999 -999 -999
2007-09-25 07:18:56 51°18.484 2°51.066 -999 -999 -999 -999
2007-09-25 07:19:01 51°18.483 2°51.066 -999 -999 -999 -999
2007-09-25 07:19:06 51°18.482 2°51.066 -999 -999 -999 -999
2007-09-25 07:19:11 51°18.48 2°51.066 -999 -999 -999 -999
2007-09-25 07:19:16 51°18.479 2°51.067 -999 -999 -999 -999
2007-09-25 07:19:21 51°18.477 2°51.067 -999 -999 -999 -999
2007-09-25 07:19:26 51°18.476 2°51.069 -999 -999 -999 -999
2007-09-25 07:19:31 51°18.474 2°51.07 -999 -999 -999 -999
2007-09-25 07:19:36 51°18.473 2°51.073 -999 -999 -999 -999
2007-09-25 07:19:41 51°18.471 2°51.077 -999 -999 -999 -999
2007-09-25 07:19:46 51°18.469 2°51.082 -999 -999 -999 -999
2007-09-25 07:19:51 51°18.467 2°51.088 -999 -999 -999 -999
2007-09-25 07:19:56 51°18.467 2°51.095 -999 -999 -999 -999
2007-09-25 07:20:01 51°18.466 2°51.102 -999 -999 -999 -999
2007-09-25 07:20:06 51°18.466 2°51.109 -999 -999 -999 -999
2007-09-25 07:20:11 51°18.467 2°51.117 -999 -999 -999 -999
2007-09-25 07:20:16 51°18.469 2°51.124 -999 -999 -999 -999
2007-09-25 07:20:21 51°18.471 2°51.132 -999 -999 -999 -999
2007-09-25 07:20:26 51°18.473 2°51.141 -999 -999 -999 -999
2007-09-25 07:20:30 51°18.476 2°51.149 -999 -999 -999 -999
2007-09-25 07:20:36 51°18.48 2°51.164 -999 -999 -999 -999
2007-09-25 07:20:41 51°18.484 2°51.177 -999 -999 -999 -999
2007-09-25 07:20:46 51°18.487 2°51.193 -999 -999 -999 -999
2007-09-25 07:20:51 51°18.494 2°51.209 -999 -999 -999 -999
2007-09-25 07:20:56 51°18.498 2°51.228 -999 -999 -999 -999
2007-09-25 07:21:01 51°18.504 2°51.246 -999 -999 -999 -999
2007-09-25 07:21:06 51°18.509 2°51.266 -999 -999 -999 -999
2007-09-25 07:21:11 51°18.516 2°51.286 -999 -999 -999 -999
2007-09-25 07:21:16 51°18.521 2°51.309 -999 -999 -999 -999
2007-09-25 07:21:21 51°18.529 2°51.328 -999 -999 -999 -999
2007-09-25 07:21:26 51°18.532 2°51.351 -999 -999 -999 -999
2007-09-25 07:21:31 51°18.54 2°51.372 -999 -999 -999 -999
2007-09-25 07:21:36 51°18.544 2°51.396 -999 -999 -999 -999
2007-09-25 07:21:41 51°18.552 2°51.417 -999 -999 -999 -999
2007-09-25 07:21:46 51°18.556 2°51.44 -999 -999 -999 -999
2007-09-25 07:21:51 51°18.562 2°51.463 -999 -999 -999 -999
2007-09-25 07:21:56 51°18.569 2°51.485 -999 -999 -999 -999
2007-09-25 07:22:01 51°18.573 2°51.509 -999 -999 -999 -999
2007-09-25 07:22:06 51°18.58 2°51.531 -999 -999 -999 -999
2007-09-25 07:22:11 51°18.585 2°51.555 -999 -999 -999 -999
2007-09-25 07:22:16 51°18.59 2°51.578 -999 -999 -999 -999
2007-09-25 07:22:21 51°18.594 2°51.602 -999 -999 -999 -999
2007-09-25 07:22:26 51°18.599 2°51.625 -999 -999 -999 -999
2007-09-25 07:22:30 51°18.605 2°51.642 -999 -999 -999 -999
2007-09-25 07:22:36 51°18.61 2°51.671 -999 -999 -999 -999
2007-09-25 07:22:41 51°18.616 2°51.693 -999 -999 -999 -999
2007-09-25 07:22:46 51°18.621 2°51.715 -999 -999 -999 -999
2007-09-25 07:22:51 51°18.626 2°51.738 -999 -999 -999 -999
2007-09-25 07:22:56 51°18.633 2°51.76 -999 -999 -999 -999
2007-09-25 07:23:01 51°18.638 2°51.782 -999 -999 -999 -999
2007-09-25 07:23:06 51°18.644 2°51.805 -999 -999 -999 -999
2007-09-25 07:23:11 51°18.651 2°51.828 -999 -999 -999 -999
2007-09-25 07:23:16 51°18.657 2°51.85 -999 -999 -999 -999
2007-09-25 07:23:21 51°18.662 2°51.874 -999 -999 -999 -999
2007-09-25 07:23:26 51°18.669 2°51.897 -999 -999 -999 -999
2007-09-25 07:23:31 51°18.676 2°51.919 -999 -999 -999 -999
2007-09-25 07:23:36 51°18.681 2°51.943 -999 -999 -999 -999
2007-09-25 07:23:41 51°18.688 2°51.965 -999 -999 -999 -999
2007-09-25 07:23:46 51°18.693 2°51.989 -999 -999 -999 -999
2007-09-25 07:23:51 51°18.7 2°52.011 -999 -999 -999 -999
2007-09-25 07:23:56 51°18.705 2°52.035 -999 -999 -999 -999
2007-09-25 07:24:01 51°18.712 2°52.057 -999 -999 -999 -999
2007-09-25 07:24:06 51°18.717 2°52.082 -999 -999 -999 -999
2007-09-25 07:24:11 51°18.723 2°52.105 -999 -999 -999 -999
2007-09-25 07:24:16 51°18.729 2°52.128 -999 -999 -999 -999
2007-09-25 07:24:21 51°18.734 2°52.151 -999 -999 -999 -999
2007-09-25 07:24:26 51°18.739 2°52.175 -999 -999 -999 -999
2007-09-25 07:24:31 51°18.745 2°52.198 -999 -999 -999 -999
2007-09-25 07:24:36 51°18.75 2°52.221 -999 -999 -999 -999
2007-09-25 07:24:41 51°18.757 2°52.244 -999 -999 -999 -999
2007-09-25 07:24:46 51°18.762 2°52.267 -999 -999 -999 -999
2007-09-25 07:24:51 51°18.768 2°52.29 -999 -999 -999 -999
2007-09-25 07:24:56 51°18.773 2°52.314 -999 -999 -999 -999
2007-09-25 07:25:01 51°18.78 2°52.337 -999 -999 -999 -999
2007-09-25 07:25:06 51°18.784 2°52.36 -999 -999 -999 -999
2007-09-25 07:25:11 51°18.791 2°52.383 -999 -999 -999 -999
2007-09-25 07:25:16 51°18.796 2°52.406 -999 -999 -999 -999
2007-09-25 07:25:21 51°18.803 2°52.428 -999 -999 -999 -999
2007-09-25 07:25:26 51°18.808 2°52.451 -999 -999 -999 -999
2007-09-25 07:25:31 51°18.815 2°52.473 -999 -999 -999 -999
2007-09-25 07:25:36 51°18.819 2°52.496 -999 -999 -999 -999
2007-09-25 07:25:41 51°18.826 2°52.518 -999 -999 -999 -999
2007-09-25 07:25:46 51°18.832 2°52.541 -999 -999 -999 -999
2007-09-25 07:25:50 51°18.837 2°52.559 -999 -999 -999 -999
2007-09-25 07:25:56 51°18.845 2°52.586 -999 -999 -999 -999
2007-09-25 07:26:01 51°18.851 2°52.609 -999 -999 -999 -999
2007-09-25 07:26:06 51°18.858 2°52.63 -999 -999 -999 -999
2007-09-25 07:26:11 51°18.862 2°52.654 -999 -999 -999 -999
2007-09-25 07:26:16 51°18.871 2°52.676 -999 -999 -999 -999
2007-09-25 07:26:21 51°18.876 2°52.7 -999 -999 -999 -999
2007-09-25 07:26:26 51°18.882 2°52.721 -999 -999 -999 -999
2007-09-25 07:26:31 51°18.888 2°52.744 -999 -999 -999 -999
2007-09-25 07:26:36 51°18.894 2°52.769 -999 -999 -999 -999
2007-09-25 07:26:41 51°18.902 2°52.792 -999 -999 -999 -999
2007-09-25 07:26:46 51°18.907 2°52.815 -999 -999 -999 -999
2007-09-25 07:26:51 51°18.912 2°52.838 -999 -999 -999 -999
2007-09-25 07:26:56 51°18.918 2°52.862 -999 -999 -999 -999
2007-09-25 07:27:01 51°18.925 2°52.884 -999 -999 -999 -999
2007-09-25 07:27:06 51°18.93 2°52.907 -999 -999 -999 -999
2007-09-25 07:27:11 51°18.936 2°52.93 -999 -999 -999 -999
2007-09-25 07:27:16 51°18.943 2°52.952 -999 -999 -999 -999
2007-09-25 07:27:21 51°18.948 2°52.975 -999 -999 -999 -999
2007-09-25 07:27:26 51°18.956 2°52.997 -999 -999 -999 -999
2007-09-25 07:27:31 51°18.96 2°53.02 -999 -999 -999 -999
2007-09-25 07:27:36 51°18.968 2°53.042 -999 -999 -999 -999
2007-09-25 07:27:41 51°18.973 2°53.066 -999 -999 -999 -999
2007-09-25 07:27:46 51°18.981 2°53.087 -999 -999 -999 -999
2007-09-25 07:27:50 51°18.984 2°53.106 -999 -999 -999 -999
2007-09-25 07:27:56 51°18.992 2°53.133 -999 -999 -999 -999
2007-09-25 07:28:01 51°18.998 2°53.156 -999 -999 -999 -999
2007-09-25 07:28:06 51°19.002 2°53.179 -999 -999 -999 -999
2007-09-25 07:28:11 51°19.009 2°53.201 -999 -999 -999 -999
2007-09-25 07:28:16 51°19.014 2°53.225 -999 -999 -999 -999
2007-09-25 07:28:21 51°19.02 2°53.247 -999 -999 -999 -999
2007-09-25 07:28:26 51°19.025 2°53.272 -999 -999 -999 -999
2007-09-25 07:28:31 51°19.034 2°53.293 -999 -999 -999 -999
2007-09-25 07:28:36 51°19.037 2°53.317 -999 -999 -999 -999
2007-09-25 07:28:41 51°19.044 2°53.34 -999 -999 -999 -999
2007-09-25 07:28:46 51°19.05 2°53.363 -999 -999 -999 -999
2007-09-25 07:28:51 51°19.056 2°53.386 -999 -999 -999 -999
2007-09-25 07:28:56 51°19.062 2°53.409 -999 -999 -999 -999
2007-09-25 07:29:01 51°19.067 2°53.433 -999 -999 -999 -999
2007-09-25 07:29:06 51°19.074 2°53.455 -999 -999 -999 -999
2007-09-25 07:29:11 51°19.079 2°53.479 -999 -999 -999 -999
2007-09-25 07:29:16 51°19.086 2°53.501 -999 -999 -999 -999
2007-09-25 07:29:21 51°19.091 2°53.524 -999 -999 -999 -999
2007-09-25 07:29:26 51°19.097 2°53.548 -999 -999 -999 -999
2007-09-25 07:29:30 51°19.103 2°53.566 -999 -999 -999 -999
2007-09-25 07:29:36 51°19.109 2°53.594 -999 -999 -999 -999
2007-09-25 07:29:41 51°19.115 2°53.616 -999 -999 -999 -999
2007-09-25 07:29:46 51°19.119 2°53.641 -999 -999 -999 -999
2007-09-25 07:29:50 51°19.124 2°53.66 -999 -999 -999 -999
2007-09-25 07:29:56 51°19.132 2°53.686 -999 -999 -999 -999
2007-09-25 07:30:01 51°19.136 2°53.708 -999 -999 -999 -999
2007-09-25 07:30:06 51°19.141 2°53.73 -999 -999 -999 -999
2007-09-25 07:30:11 51°19.145 2°53.755 -999 -999 -999 -999
2007-09-25 07:30:16 51°19.153 2°53.776 -999 -999 -999 -999
2007-09-25 07:30:21 51°19.156 2°53.799 -999 -999 -999 -999
2007-09-25 07:30:26 51°19.161 2°53.821 -999 -999 -999 -999
2007-09-25 07:30:31 51°19.165 2°53.846 -999 -999 -999 -999
2007-09-25 07:30:36 51°19.173 2°53.867 -999 -999 -999 -999
2007-09-25 07:30:41 51°19.177 2°53.891 -999 -999 -999 -999
2007-09-25 07:30:46 51°19.182 2°53.914 -999 -999 -999 -999
2007-09-25 07:30:51 51°19.187 2°53.938 -999 -999 -999 -999
2007-09-25 07:30:56 51°19.193 2°53.96 -999 -999 -999 -999
2007-09-25 07:31:01 51°19.198 2°53.984 -999 -999 -999 -999
2007-09-25 07:31:06 51°19.204 2°54.006 -999 -999 -999 -999
2007-09-25 07:31:11 51°19.209 2°54.029 -999 -999 -999 -999
2007-09-25 07:31:16 51°19.215 2°54.052 -999 -999 -999 -999
2007-09-25 07:31:21 51°19.221 2°54.076 -999 -999 -999 -999
2007-09-25 07:31:26 51°19.228 2°54.098 -999 -999 -999 -999
2007-09-25 07:31:31 51°19.232 2°54.12 -999 -999 -999 -999
2007-09-25 07:31:36 51°19.239 2°54.144 -999 -999 -999 -999
2007-09-25 07:31:41 51°19.245 2°54.167 -999 -999 -999 -999
2007-09-25 07:31:46 51°19.25 2°54.19 -999 -999 -999 -999
2007-09-25 07:31:50 51°19.255 2°54.207 -999 -999 -999 -999
2007-09-25 07:31:56 51°19.261 2°54.235 -999 -999 -999 -999
2007-09-25 07:32:01 51°19.268 2°54.256 -999 -999 -999 -999
2007-09-25 07:32:06 51°19.273 2°54.279 -999 -999 -999 -999
2007-09-25 07:32:11 51°19.279 2°54.3 -999 -999 -999 -999
2007-09-25 07:32:16 51°19.284 2°54.325 -999 -999 -999 -999
2007-09-25 07:32:21 51°19.291 2°54.347 -999 -999 -999 -999
2007-09-25 07:32:26 51°19.295 2°54.371 -999 -999 -999 -999
2007-09-25 07:32:31 51°19.302 2°54.392 -999 -999 -999 -999
2007-09-25 07:32:36 51°19.307 2°54.416 -999 -999 -999 -999
2007-09-25 07:32:41 51°19.314 2°54.438 -999 -999 -999 -999
2007-09-25 07:32:46 51°19.32 2°54.46 -999 -999 -999 -999
2007-09-25 07:32:51 51°19.325 2°54.482 -999 -999 -999 -999
2007-09-25 07:32:56 51°19.331 2°54.505 -999 -999 -999 -999
2007-09-25 07:33:01 51°19.337 2°54.528 -999 -999 -999 -999
2007-09-25 07:33:06 51°19.342 2°54.551 -999 -999 -999 -999
2007-09-25 07:33:11 51°19.347 2°54.574 -999 -999 -999 -999
2007-09-25 07:33:16 51°19.354 2°54.597 -999 -999 -999 -999
2007-09-25 07:33:21 51°19.359 2°54.62 -999 -999 -999 -999
2007-09-25 07:33:26 51°19.365 2°54.643 -999 -999 -999 -999
2007-09-25 07:33:31 51°19.371 2°54.666 -999 -999 -999 -999
2007-09-25 07:33:36 51°19.376 2°54.69 -999 -999 -999 -999
2007-09-25 07:33:41 51°19.384 2°54.711 -999 -999 -999 -999
2007-09-25 07:33:46 51°19.387 2°54.736 -999 -999 -999 -999
2007-09-25 07:33:50 51°19.394 2°54.753 -999 -999 -999 -999
2007-09-25 07:33:56 51°19.4 2°54.781 -999 -999 -999 -999
2007-09-25 07:34:01 51°19.406 2°54.804 -999 -999 -999 -999
2007-09-25 07:34:06 51°19.412 2°54.827 -999 -999 -999 -999
2007-09-25 07:34:11 51°19.417 2°54.849 -999 -999 -999 -999
2007-09-25 07:34:16 51°19.423 2°54.872 -999 -999 -999 -999
2007-09-25 07:34:21 51°19.429 2°54.895 -999 -999 -999 -999
2007-09-25 07:34:26 51°19.436 2°54.917 -999 -999 -999 -999
2007-09-25 07:34:31 51°19.441 2°54.939 -999 -999 -999 -999
2007-09-25 07:34:36 51°19.447 2°54.962 -999 -999 -999 -999
2007-09-25 07:34:41 51°19.452 2°54.985 -999 -999 -999 -999
2007-09-25 07:34:46 51°19.458 2°55.007 -999 -999 -999 -999
2007-09-25 07:34:50 51°19.461 2°55.026 -999 -999 -999 -999
2007-09-25 07:34:56 51°19.468 2°55.053 -999 -999 -999 -999
2007-09-25 07:35:01 51°19.473 2°55.077 -999 -999 -999 -999
2007-09-25 07:35:06 51°19.479 2°55.099 -999 -999 -999 -999
2007-09-25 07:35:11 51°19.483 2°55.123 -999 -999 -999 -999
2007-09-25 07:35:16 51°19.489 2°55.147 -999 -999 -999 -999
2007-09-25 07:35:21 51°19.494 2°55.17 -999 -999 -999 -999
2007-09-25 07:35:26 51°19.499 2°55.193 -999 -999 -999 -999
2007-09-25 07:35:31 51°19.504 2°55.217 -999 -999 -999 -999
2007-09-25 07:35:36 51°19.511 2°55.239 -999 -999 -999 -999
2007-09-25 07:35:41 51°19.516 2°55.262 -999 -999 -999 -999
2007-09-25 07:35:46 51°19.522 2°55.285 -999 -999 -999 -999
2007-09-25 07:35:51 51°19.528 2°55.308 -999 -999 -999 -999
2007-09-25 07:35:56 51°19.533 2°55.33 -999 -999 -999 -999
2007-09-25 07:36:01 51°19.539 2°55.353 -999 -999 -999 -999
2007-09-25 07:36:06 51°19.544 2°55.376 -999 -999 -999 -999
2007-09-25 07:36:11 51°19.55 2°55.399 -999 -999 -999 -999
2007-09-25 07:36:16 51°19.556 2°55.421 -999 -999 -999 -999
2007-09-25 07:36:21 51°19.56 2°55.444 -999 -999 -999 -999
2007-09-25 07:36:26 51°19.566 2°55.467 -999 -999 -999 -999
2007-09-25 07:36:31 51°19.573 2°55.49 -999 -999 -999 -999
2007-09-25 07:36:36 51°19.577 2°55.513 -999 -999 -999 -999
2007-09-25 07:36:41 51°19.583 2°55.536 -999 -999 -999 -999
2007-09-25 07:36:46 51°19.587 2°55.56 -999 -999 -999 -999
2007-09-25 07:36:50 51°19.593 2°55.578 -999 -999 -999 -999
2007-09-25 07:36:56 51°19.598 2°55.606 -999 -999 -999 -999
2007-09-25 07:37:01 51°19.605 2°55.629 -999 -999 -999 -999
2007-09-25 07:37:06 51°19.61 2°55.651 -999 -999 -999 -999
2007-09-25 07:37:11 51°19.615 2°55.675 -999 -999 -999 -999
2007-09-25 07:37:16 51°19.623 2°55.697 -999 -999 -999 -999
2007-09-25 07:37:21 51°19.627 2°55.72 -999 -999 -999 -999
2007-09-25 07:37:26 51°19.632 2°55.743 -999 -999 -999 -999
2007-09-25 07:37:31 51°19.639 2°55.764 -999 -999 -999 -999
2007-09-25 07:37:36 51°19.645 2°55.787 -999 -999 -999 -999
2007-09-25 07:37:41 51°19.652 2°55.808 -999 -999 -999 -999
2007-09-25 07:37:46 51°19.657 2°55.831 -999 -999 -999 -999
2007-09-25 07:37:51 51°19.663 2°55.854 -999 -999 -999 -999
2007-09-25 07:37:56 51°19.669 2°55.877 -999 -999 -999 -999
2007-09-25 07:38:01 51°19.675 2°55.899 -999 -999 -999 -999
2007-09-25 07:38:06 51°19.68 2°55.922 -999 -999 -999 -999
2007-09-25 07:38:11 51°19.686 2°55.944 -999 -999 -999 -999
2007-09-25 07:38:16 51°19.691 2°55.968 -999 -999 -999 -999
2007-09-25 07:38:21 51°19.698 2°55.991 -999 -999 -999 -999
2007-09-25 07:38:26 51°19.702 2°56.014 -999 -999 -999 -999
2007-09-25 07:38:31 51°19.708 2°56.037 -999 -999 -999 -999
2007-09-25 07:38:36 51°19.713 2°56.062 -999 -999 -999 -999
2007-09-25 07:38:41 51°19.719 2°56.084 -999 -999 -999 -999
2007-09-25 07:38:46 51°19.723 2°56.108 -999 -999 -999 -999
2007-09-25 07:38:51 51°19.729 2°56.131 -999 -999 -999 -999
2007-09-25 07:38:56 51°19.733 2°56.156 -999 -999 -999 -999
2007-09-25 07:39:01 51°19.74 2°56.177 -999 -999 -999 -999
2007-09-25 07:39:06 51°19.745 2°56.2 -999 -999 -999 -999
2007-09-25 07:39:11 51°19.75 2°56.223 -999 -999 -999 -999
2007-09-25 07:39:16 51°19.756 2°56.248 -999 -999 -999 -999
2007-09-25 07:39:21 51°19.763 2°56.27 -999 -999 -999 -999
2007-09-25 07:39:26 51°19.766 2°56.293 -999 -999 -999 -999
2007-09-25 07:39:31 51°19.771 2°56.317 -999 -999 -999 -999
2007-09-25 07:39:36 51°19.777 2°56.341 -999 -999 -999 -999
2007-09-25 07:39:41 51°19.782 2°56.363 -999 -999 -999 -999
2007-09-25 07:39:46 51°19.786 2°56.388 -999 -999 -999 -999
2007-09-25 07:39:51 51°19.793 2°56.41 -999 -999 -999 -999
2007-09-25 07:39:56 51°19.797 2°56.433 -999 -999 -999 -999
2007-09-25 07:40:01 51°19.803 2°56.456 -999 -999 -999 -999
2007-09-25 07:40:06 51°19.809 2°56.479 -999 -999 -999 -999
2007-09-25 07:40:11 51°19.814 2°56.502 -999 -999 -999 -999
2007-09-25 07:40:16 51°19.82 2°56.525 -999 -999 -999 -999
2007-09-25 07:40:21 51°19.825 2°56.549 -999 -999 -999 -999
2007-09-25 07:40:26 51°19.832 2°56.571 -999 -999 -999 -999
2007-09-25 07:40:31 51°19.836 2°56.594 -999 -999 -999 -999
2007-09-25 07:40:36 51°19.844 2°56.616 -999 -999 -999 -999
2007-09-25 07:40:41 51°19.848 2°56.641 -999 -999 -999 -999
2007-09-25 07:40:46 51°19.855 2°56.662 -999 -999 -999 -999
2007-09-25 07:40:51 51°19.86 2°56.685 -999 -999 -999 -999
2007-09-25 07:40:56 51°19.865 2°56.708 -999 -999 -999 -999
2007-09-25 07:41:01 51°19.871 2°56.73 -999 -999 -999 -999
2007-09-25 07:41:06 51°19.875 2°56.754 -999 -999 -999 -999
2007-09-25 07:41:11 51°19.882 2°56.776 -999 -999 -999 -999
2007-09-25 07:41:16 51°19.887 2°56.799 -999 -999 -999 -999
2007-09-25 07:41:21 51°19.893 2°56.821 -999 -999 -999 -999
2007-09-25 07:41:26 51°19.898 2°56.845 -999 -999 -999 -999
2007-09-25 07:41:31 51°19.905 2°56.867 -999 -999 -999 -999
2007-09-25 07:41:36 51°19.909 2°56.891 -999 -999 -999 -999
2007-09-25 07:41:41 51°19.917 2°56.913 -999 -999 -999 -999
2007-09-25 07:41:46 51°19.921 2°56.937 -999 -999 -999 -999
2007-09-25 07:41:51 51°19.927 2°56.959 -999 -999 -999 -999
2007-09-25 07:41:56 51°19.931 2°56.984 -999 -999 -999 -999
2007-09-25 07:42:01 51°19.938 2°57.006 -999 -999 -999 -999
2007-09-25 07:42:06 51°19.943 2°57.029 -999 -999 -999 -999
2007-09-25 07:42:11 51°19.949 2°57.051 -999 -999 -999 -999
2007-09-25 07:42:16 51°19.955 2°57.074 -999 -999 -999 -999
2007-09-25 07:42:21 51°19.961 2°57.098 -999 -999 -999 -999
2007-09-25 07:42:26 51°19.968 2°57.121 -999 -999 -999 -999
2007-09-25 07:42:31 51°19.973 2°57.143 -999 -999 -999 -999
2007-09-25 07:42:36 51°19.978 2°57.166 -999 -999 -999 -999
2007-09-25 07:42:41 51°19.984 2°57.19 -999 -999 -999 -999
2007-09-25 07:42:46 51°19.99 2°57.214 -999 -999 -999 -999
2007-09-25 07:42:51 51°19.995 2°57.236 -999 -999 -999 -999
2007-09-25 07:42:56 51°19.999 2°57.259 -999 -999 -999 -999
2007-09-25 07:43:01 51°20.004 2°57.283 -999 -999 -999 -999
2007-09-25 07:43:06 51°20.01 2°57.307 -999 -999 -999 -999
2007-09-25 07:43:11 51°20.015 2°57.33 -999 -999 -999 -999
2007-09-25 07:43:16 51°20.021 2°57.353 -999 -999 -999 -999
2007-09-25 07:43:21 51°20.027 2°57.375 -999 -999 -999 -999
2007-09-25 07:43:26 51°20.033 2°57.399 -999 -999 -999 -999
2007-09-25 07:43:30 51°20.038 2°57.417 -999 -999 -999 -999
2007-09-25 07:43:36 51°20.044 2°57.446 -999 -999 -999 -999
2007-09-25 07:43:41 51°20.052 2°57.467 -999 -999 -999 -999
2007-09-25 07:43:46 51°20.056 2°57.491 -999 -999 -999 -999
2007-09-25 07:43:51 51°20.063 2°57.513 -999 -999 -999 -999
2007-09-25 07:43:56 51°20.068 2°57.537 -999 -999 -999 -999
2007-09-25 07:44:01 51°20.076 2°57.558 -999 -999 -999 -999
2007-09-25 07:44:06 51°20.079 2°57.582 -999 -999 -999 -999
2007-09-25 07:44:11 51°20.086 2°57.604 -999 -999 -999 -999
2007-09-25 07:44:16 51°20.091 2°57.628 -999 -999 -999 -999
2007-09-25 07:44:21 51°20.098 2°57.65 -999 -999 -999 -999
2007-09-25 07:44:26 51°20.103 2°57.674 -999 -999 -999 -999
2007-09-25 07:44:31 51°20.109 2°57.697 -999 -999 -999 -999
2007-09-25 07:44:36 51°20.113 2°57.72 -999 -999 -999 -999
2007-09-25 07:44:41 51°20.119 2°57.745 -999 -999 -999 -999
2007-09-25 07:44:46 51°20.126 2°57.768 -999 -999 -999 -999
2007-09-25 07:44:51 51°20.13 2°57.791 -999 -999 -999 -999
2007-09-25 07:44:56 51°20.136 2°57.813 -999 -999 -999 -999
2007-09-25 07:45:01 51°20.141 2°57.838 -999 -999 -999 -999
2007-09-25 07:45:06 51°20.148 2°57.861 -999 -999 -999 -999
2007-09-25 07:45:11 51°20.153 2°57.884 -999 -999 -999 -999
2007-09-25 07:45:16 51°20.158 2°57.906 -999 -999 -999 -999
2007-09-25 07:45:21 51°20.162 2°57.932 -999 -999 -999 -999
2007-09-25 07:45:26 51°20.17 2°57.954 -999 -999 -999 -999
2007-09-25 07:45:31 51°20.174 2°57.977 -999 -999 -999 -999
2007-09-25 07:45:36 51°20.18 2°58 -999 -999 -999 -999
2007-09-25 07:45:41 51°20.185 2°58.025 -999 -999 -999 -999
2007-09-25 07:45:46 51°20.192 2°58.046 -999 -999 -999 -999
2007-09-25 07:45:50 51°20.194 2°58.066 -999 -999 -999 -999
2007-09-25 07:45:56 51°20.202 2°58.093 -999 -999 -999 -999
2007-09-25 07:46:01 51°20.205 2°58.118 -999 -999 -999 -999
2007-09-25 07:46:06 51°20.213 2°58.138 -999 -999 -999 -999
2007-09-25 07:46:11 51°20.218 2°58.161 -999 -999 -999 -999
2007-09-25 07:46:16 51°20.224 2°58.184 -999 -999 -999 -999
2007-09-25 07:46:21 51°20.229 2°58.207 -999 -999 -999 -999
2007-09-25 07:46:26 51°20.233 2°58.23 -999 -999 -999 -999
2007-09-25 07:46:31 51°20.24 2°58.253 -999 -999 -999 -999
2007-09-25 07:46:36 51°20.244 2°58.276 -999 -999 -999 -999
2007-09-25 07:46:41 51°20.251 2°58.299 -999 -999 -999 -999
2007-09-25 07:46:46 51°20.256 2°58.322 -999 -999 -999 -999
2007-09-25 07:46:51 51°20.262 2°58.345 -999 -999 -999 -999
2007-09-25 07:46:56 51°20.268 2°58.368 -999 -999 -999 -999
2007-09-25 07:47:01 51°20.273 2°58.392 -999 -999 -999 -999
2007-09-25 07:47:06 51°20.28 2°58.413 -999 -999 -999 -999
2007-09-25 07:47:11 51°20.283 2°58.437 -999 -999 -999 -999
2007-09-25 07:47:17 51°20.291 2°58.464 -999 -999 -999 -999
2007-09-25 07:47:21 51°20.295 2°58.482 -999 -999 -999 -999
2007-09-25 07:47:26 51°20.301 2°58.505 -999 -999 -999 -999
2007-09-25 07:47:31 51°20.307 2°58.527 -999 -999 -999 -999
2007-09-25 07:47:36 51°20.313 2°58.55 -999 -999 -999 -999
2007-09-25 07:47:41 51°20.319 2°58.574 -999 -999 -999 -999
2007-09-25 07:47:46 51°20.326 2°58.597 -999 -999 -999 -999
2007-09-25 07:47:50 51°20.329 2°58.616 -999 -999 -999 -999
2007-09-25 07:47:56 51°20.336 2°58.643 -999 -999 -999 -999
2007-09-25 07:48:01 51°20.34 2°58.668 -999 -999 -999 -999
2007-09-25 07:48:06 51°20.348 2°58.689 -999 -999 -999 -999
2007-09-25 07:48:11 51°20.352 2°58.714 -999 -999 -999 -999
2007-09-25 07:48:16 51°20.359 2°58.737 -999 -999 -999 -999
2007-09-25 07:48:21 51°20.363 2°58.76 -999 -999 -999 -999
2007-09-25 07:48:26 51°20.368 2°58.783 -999 -999 -999 -999
2007-09-25 07:48:31 51°20.374 2°58.807 -999 -999 -999 -999
2007-09-25 07:48:36 51°20.38 2°58.83 -999 -999 -999 -999
2007-09-25 07:48:41 51°20.385 2°58.852 -999 -999 -999 -999
2007-09-25 07:48:46 51°20.389 2°58.875 -999 -999 -999 -999
2007-09-25 07:48:51 51°20.395 2°58.9 -999 -999 -999 -999
2007-09-25 07:48:56 51°20.401 2°58.923 -999 -999 -999 -999
2007-09-25 07:49:01 51°20.406 2°58.946 -999 -999 -999 -999
2007-09-25 07:49:06 51°20.412 2°58.968 -999 -999 -999 -999
2007-09-25 07:49:11 51°20.416 2°58.994 -999 -999 -999 -999
2007-09-25 07:49:16 51°20.424 2°59.016 -999 -999 -999 -999
2007-09-25 07:49:21 51°20.428 2°59.038 -999 -999 -999 -999
2007-09-25 07:49:26 51°20.433 2°59.061 -999 -999 -999 -999
2007-09-25 07:49:31 51°20.439 2°59.084 -999 -999 -999 -999
2007-09-25 07:49:36 51°20.443 2°59.108 -999 -999 -999 -999